Zurück zum Katalog

STARLINK-35121

AktivKommunikationVLEO
NORAD 65737·PAYLOAD·🇺🇸 United States

Gestartet Sep 25, 2025 von Cape Canaveral Space Force Station

Loading…

Nächste Überflüge (nächste 24 Stunden)

TLE

AktuellSource: CelesTrak SupGP

Epoche: Sep 15, 2026, 03:52 UTC

1 65737C 25216D   26258.16159722 -.00000772  00000+0 -22803-4 0  2584
2 65737  53.1578 170.4914 0001428  87.1558 335.6013 15.34380578    10

Verfolge STARLINK-35121 in Echtzeit mit AllMySat

Download on the App Store